Regional Weather Roundup
Issued by NWS

Home | Current Version | Previous Version | Text Only | Print | Product List | Glossary Off
Versions: 1 2 3 4 5 6 7 8 9 10 11 12 13 14 15 16 17 18 19 20 21 22 23 24 25 26 27 28 29 30 31 32 33 34 35 36 37 38 39 40 41 42 43 44 45 46 47 48 49 50

908
ASUS43 KBIS 140610
RWRND

NORTH DAKOTA REGIONAL WEATHER ROUNDUP
NATIONAL WEATHER SERVICE BISMARCK ND
1200 AM CST THU DEC 14 2017

NOTE: "FAIR" INDICATES FEW OR NO CLOUDS BELOW 12,000 FEET WITH NO
SIGNIFICANT WEATHER AND/OR OBSTRUCTIONS TO VISIBILITY.


NDZ001>003-009>011-017-140700-
NORTHWEST NORTH DAKOTA

CITY           SKY/WX    TMP DP  RH WIND       PRES   REMARKS
WILLISTON      CLOUDY    36  28  73 NW8       30.02R
6HR MIN TEMP:  33; 6HR MAX TEMP:  36;

MINOT          CLOUDY    31  26  82 W7        29.95R
MINOT AFB      CLOUDY    28  25  87 W3        29.93F
$$

NDZ018>021-031>035-040>046-140700-
SOUTHWEST NORTH DAKOTA

CITY           SKY/WX    TMP DP  RH WIND       PRES   REMARKS
BISMARCK       CLOUDY    32  25  75 NW5       30.00S
6HR MIN TEMP:  32; 6HR MAX TEMP:  36;

DICKINSON      CLOUDY    34  26  72 NW16      29.97F
GARRISON         N/A     26  24  92 W9        29.96F WCI  17
6HR MIN TEMP:  23; 6HR MAX TEMP:  30;

HETTINGER ARPT CLOUDY    34  27  75 W15       30.02F
$$

NDZ004>008-012>016-024-026-027-054-140700-
NORTHEAST NORTH DAKOTA

CITY           SKY/WX    TMP DP  RH WIND       PRES   REMARKS
GRAND FORKS    CLOUDY    17  14  88 W12       30.00S WCI   4
GRND FRKS AFB  CLOUDY    16  11  81 N5        30.00S WCI   9
DEVILS LAKE    CLOUDY    20  18  92 CALM      29.98R
$$

NDZ022-023-025-028>030-036>039-047>053-140700-
SOUTHEAST NORTH DAKOTA

CITY           SKY/WX    TMP DP  RH WIND       PRES   REMARKS
FARGO          CLOUDY    18  13  80 N9        30.02R WCI   7
6HR MIN TEMP:  18; 6HR MAX TEMP:  23; 6HR PCP: TRACE;

JAMESTOWN      CLOUDY    25  24  96 NW5       29.97R WCI  19
$$





USA.gov is the U.S. government's official web portal to all federal, state and local government web resources and services.